User: anonymous   Login
Location: Unspecified
(0.0000°N, 0.0000°E)
Time: 18:49:02
(UTC+00:00)
Language:

NOAA 18 - Orbit

View from above orbital plane
View from above orbital plane
View from above satellite
View from above satellite

Ground track
Ground track

The orbit data is extracted from the following two-line orbital elements,

1 28654U 05018A   17234.50558019  .00000036  00000-0  45017-4 0  9999
2 28654  99.1798 258.3310 0013383 243.9255 116.0539 14.12345881631619
Epoch (UTC): 22 August 2017 12:08:02
Eccentricity: 0.0013383
inclination: 99.1798°
perigee height: 841 km
apogee height: 861 km
right ascension of ascending node: 258.3310°
argument of perigee: 243.9255°
revolutions per day: 14.12345881
mean anomaly at epoch: 116.0539°
orbit number at epoch: 63161

The dashed part of the orbit path shows where the satellite is in the earth's shadow,  

DLR